sat.trackr.live / text

‹ back to catalog

STARLINK-11228 [DTC]

NORAD 60398 · 2024-141A

PAYLOAD ACTIVE UNKNOWN

§ Identity

Operator
Country
US
Launch date
2024-08-10
Launch site
AFETR
Launch vehicle
Mass (kg)
RCS (m²)

Purposes: comms

External: N2YO · Heavens-Above · Gunter

§ Orbital elements

Epoch: 2026-05-25T03:54:10.825056Z

Period
91.74 min
Inclination
53.1599°
Eccentricity
0.0000974
Mean motion
15.69708924 rev/d
Perigee alt
359.1 km
Apogee alt
360.4 km
Semi-major
6,737.9 km
B*
8.6113e-6
RAAN
69.2943°
Arg perigee
94.9317°
Mean anomaly
265.1812°
Rev number
10,370

§ Raw data

STARLINK-11228 [DTC]1 60398U 24141A   26145.16262529  .00000455  00000+0  86113-5 0  99962 60398  53.1599  69.2943 0000974  94.9317 265.1812 15.69708924103703

JSON: /api/v1/satellites/60398 · /tle

For live sub-satellite position, see the globe view (requires WebGL).

§ Visibility from observer

Set your observer location to see the next 7 days of passes ≥ 10°. The values pass through the URL so the page stays shareable.

No JS? Fill the form by hand. The geolocation button needs JavaScript.